This is the latest recevied weather packets stored in our database for station/object EB1GOD-1. If no packets are shown the sender has not sent any weather packets the latest 10 day(s).
| Time | Temp. | Humidity | Pressure | Rain* | Wind** | Luminosity | Snow |
|---|---|---|---|---|---|---|---|
| 1778029433 | 11.67° C | 87% | 1154.3 hPa | - | - | - | - |
| 1778028533 | 10.56° C | 85% | 1154.7 hPa | - | - | - | - |
| 1778027633 | 11.67° C | 87% | 1154.6 hPa | - | - | - | - |
| 1778026733 | 11.67° C | 84% | 1154.6 hPa | - | - | - | - |
| 1778025833 | 12.22° C | 84% | 1154.7 hPa | - | - | - | - |
| 1778024933 | 11.11° C | 90% | 1154.7 hPa | - | - | - | - |
| 1778024033 | 10.56° C | 89% | 1154.8 hPa | - | - | - | - |
| 1778023132 | 11.11° C | 90% | 1154.8 hPa | - | - | - | - |
| 1778022282 | 12.78° C | 84% | 1154.7 hPa | - | - | - | - |
| 1778022232 | 12.78° C | 84% | 1154.7 hPa | - | - | - | - |
| 1778021332 | 12.22° C | 86% | 1154.7 hPa | - | - | - | - |
| 1778020432 | 12.78° C | 87% | 1154.7 hPa | - | - | - | - |
| 1778019532 | 12.78° C | 85% | 1154.7 hPa | - | - | - | - |
| 1778018632 | 13.33° C | 82% | 1154.8 hPa | - | - | - | - |
| 1778017732 | 13.89° C | 80% | 1154.8 hPa | - | - | - | - |
| 1778016832 | 13.33° C | 80% | 1154.9 hPa | - | - | - | - |
| 1778015932 | 13.89° C | 80% | 1154.9 hPa | - | - | - | - |
| 1778015032 | 13.33° C | 81% | 1154.8 hPa | - | - | - | - |
| 1778014132 | 13.33° C | 82% | 1154.7 hPa | - | - | - | - |
| 1778013232 | 12.78° C | 83% | 1154.7 hPa | - | - | - | - |
| 1778012331 | 12.22° C | 85% | 1154.5 hPa | - | - | - | - |
| 1778011432 | 13.89° C | 79% | 1154.3 hPa | - | - | - | - |
| 1778010531 | 13.33° C | 80% | 1154.2 hPa | - | - | - | - |
| 1778009632 | 13.33° C | 79% | 1154.1 hPa | - | - | - | - |
| 1778008731 | 15° C | 70% | 1154 hPa | - | - | - | - |
* Rain since midnight (hover to see other rain measurements)
** Current wind speed in m/s (hover to see current wind gust speed)